This is the latest recevied weather packets stored in our database for station/object AJ5AG. If no packets are shown the sender has not sent any weather packets the latest 1 day(s).
| Time | Temp. | Humidity | Pressure | Rain* | Wind** | Luminosity | Snow |
|---|---|---|---|---|---|---|---|
| 1778018856 | 28.33° C | 72% | 1009 hPa | 0 mm | 0.45 m/s, 107° | 105 W/m² | - |
| 1778018553 | 28.89° C | 71% | 1009 hPa | 0 mm | 0.45 m/s, 128° | 101 W/m² | - |
| 1778018251 | 28.33° C | 72% | 1009.3 hPa | 0 mm | 0.45 m/s, 159° | 135 W/m² | - |
| 1778017949 | 28.33° C | 72% | 1009.3 hPa | 0 mm | 0 m/s | 137 W/m² | - |
| 1778017646 | 28.89° C | 72% | 1009.2 hPa | 0 mm | 0 m/s | 110 W/m² | - |
| 1778017344 | 28.89° C | 73% | 1009.2 hPa | 0 mm | 0 m/s | 178 W/m² | - |
| 1778017041 | 28.89° C | 72% | 1009.4 hPa | 0 mm | 0 m/s | 109 W/m² | - |
| 1778016738 | 28.89° C | 71% | 1009.5 hPa | 0 mm | 0 m/s | 145 W/m² | - |
| 1778016434 | 28.89° C | 70% | 1009.4 hPa | 0 mm | 0.89 m/s, 128° | 132 W/m² | - |
| 1778016132 | 29.44° C | 69% | 1009.4 hPa | 0 mm | 0.45 m/s, 44° | 133 W/m² | - |
| 1778015828 | 29.44° C | 70% | 1009.5 hPa | 0 mm | 0.89 m/s, 145° | 198 W/m² | - |
| 1778015525 | 29.44° C | 70% | 1009.4 hPa | 0 mm | 0.45 m/s, 125° | 151 W/m² | - |
| 1778015222 | 29.44° C | 70% | 1009.5 hPa | 0 mm | 0.89 m/s, 158° | 167 W/m² | - |
| 1778014919 | 29.44° C | 70% | 1009.6 hPa | 0 mm | 0 m/s | 94 W/m² | - |
| 1778014616 | 29.44° C | 70% | 1009.5 hPa | 0 mm | 0.45 m/s, 188° | 174 W/m² | - |
| 1778014314 | 29.44° C | 70% | 1009.7 hPa | 0 mm | 0 m/s | 165 W/m² | - |
| 1778014010 | 29.44° C | 70% | 1010 hPa | 0 mm | 0 m/s | 203 W/m² | - |
| 1778013709 | 29.44° C | 69% | 1009.9 hPa | 0 mm | 0.45 m/s, 88° | 209 W/m² | - |
| 1778013405 | 29.44° C | 69% | 1010.1 hPa | 0 mm | 0.45 m/s, 63° | 218 W/m² | - |
| 1778013102 | 29.44° C | 71% | 1010.3 hPa | 0 mm | 0.89 m/s, 174° | 280 W/m² | - |
| 1778012798 | 29.44° C | 70% | 1010.2 hPa | 0 mm | 0.45 m/s, 97° | 195 W/m² | - |
| 1778012494 | 29.44° C | 69% | 1010.1 hPa | 0 mm | 0 m/s | 217 W/m² | - |
| 1778012191 | 30° C | 68% | 1010.3 hPa | 0 mm | 0.45 m/s, 208° | 164 W/m² | - |
| 1778011889 | 30° C | 68% | 1010.2 hPa | 0 mm | 0.45 m/s, 58° | 386 W/m² | - |
| 1778011586 | 30° C | 70% | 1010.4 hPa | 0 mm | 0 m/s | 766 W/m² | - |
* Rain latest hour (hover to see other rain measurements)
** Current wind speed in m/s (hover to see current wind gust speed)